Regional Weather Roundup
Issued by NWS

Home | Current Version | Previous Version | Graphics & Text | Print | Product List | Glossary On
Versions: 1 2 3 4 5 6 7 8 9 10 11 12 13 14 15 16 17 18 19 20 21 22 23 24 25 26 27 28 29 30 31 32 33 34 35 36 37 38 39 40 41 42 43 44 45 46 47 48 49 50
000
ASUS43 KMKX 282120
RWRWI

WISCONSIN REGIONAL WEATHER ROUNDUP
NATIONAL WEATHER SERVICE MILWAUKEE/SULLIVAN WI
300 PM CST WED JAN 28 2015

NOTE: "FAIR" INDICATES FEW OR NO CLOUDS BELOW 12,000 FEET WITH NO
SIGNIFICANT WEATHER AND/OR OBSTRUCTIONS TO VISIBILITY.

WIZ001-002-006>008-014>016-023>028-282200-
NORTHWEST WISCONSIN

CITY           SKY/WX    TMP DP  RH WIND       PRES   REMARKS
SUPERIOR ARPT  CLOUDY    32  25  74 S10       29.84F WCI  24
ASHLAND        PTSUNNY   33  23  66 S13       29.86F WCI  24
HAYWARD        CLOUDY    29  22  75 SE9       29.85F HAZE    WCI  20
SIREN          CLOUDY    31  25  78 SE8       29.84S HAZE    WCI  23
CUMBERLAND     CLOUDY    28  23  80 SE10G22   29.82F HAZE    WCI  19
RICE LAKE      CLOUDY    29  24  81 SE15      29.85F HAZE    WCI  18
CHETEK         CLOUDY    29  24  81 SE13G18   29.85F HAZE    WCI  19
LADYSMITH      CLOUDY    28  24  84 SE13      29.91F WCI  17
EAU CLAIRE     CLOUDY    30  24  78 SE14      29.86F HAZE    WCI  19
MENOMONIE      CLOUDY    32  26  81 E16       29.85F HAZE    WCI  21
NEW RICHMOND   CLOUDY    30  26  82 SE10      29.82F HAZE    WCI  21
OSCEOLA        CLOUDY    31  27  83 SE9       29.85F HAZE    WCI  23
$$

WIZ003>005-009-010-017-018-282200-
NORTH CENTRAL WISCONSIN

CITY           SKY/WX    TMP DP  RH WIND       PRES   REMARKS
MANITOWISH WTR PTSUNNY   28  21  74 S10       29.87F WCI  19
ARBOR VITAE    PTSUNNY   32  24  72 SE14      29.88F WCI  22
WOODRUFF       PTSUNNY   32  24  72 SE14      29.88F WCI  22
RHINELANDER    PTSUNNY   28  20  71 S13G20    29.92F WCI  17
EAGLE RIVER    PTSUNNY   29  20  66 S9G20     29.90F WCI  21
LAND O LAKES   PTSUNNY   30  22  71 S10G17    29.90F WCI  21
PHILLIPS       CLOUDY    28  21  75 S13       29.88F WCI  18
TOMAHAWK       PTSUNNY   29  21  71 CALM      29.92F
MEDFORD        CLOUDY    24  21  88 SE12      29.91F FOG     WCI  13
MERRILL        PTSUNNY   30  21  70 SE13      29.94F WCI  20
$$

WIZ029-030-035-036-043>047-282200-
CENTRAL WISCONSIN

CITY           SKY/WX    TMP DP  RH WIND       PRES   REMARKS
WAUSAU         PTSUNNY   29  21  72 S12       29.94F WCI  19
MOSINEE        MOSUNNY   28  23  80 SE12G20   29.97F WCI  18
MARSHFIELD     CLOUDY    27  23  85 SE12      29.94F FOG     WCI  17
STEVENS POINT  CLOUDY    27  21  78 S12       29.98F WCI  16
WAUPACA        CLOUDY    33  22  64 SE10G16   30.02F WCI  24
WAUTOMA        CLOUDY    32  22  67 SE10      30.01F WCI  24
WISC RAPIDS    CLOUDY    28  22  78 SE8       29.98F WCI  20
CAMP DOUGLAS   CLOUDY    32  32 100 SE13      29.92F WCI  22
$$

WIZ011>013-019>022-031-037>040-048>050-282200-
NORTHEAST WISCONSIN

CITY           SKY/WX    TMP DP  RH WIND       PRES   REMARKS
ANTIGO         PTSUNNY   26  20  79 SE14      29.95F WCI  15
SHAWANO        PTSUNNY   33  21  62 S6        30.03F WCI  27
OCONTO         CLOUDY    31  24  75 SE7       30.05F WCI  24
STURGEON BAY   CLOUDY    30  25  80 S15G23    30.07F WCI  19
GREEN BAY      CLOUDY    32  24  72 S9        30.04F WCI  24
MANITOWOC      CLOUDY    32  26  78 S16       30.08F WCI  21
APPLETON       CLOUDY    30  19  64 SE14      30.03F WCI  20
CLINTONVILLE   CLOUDY    32  21  64 S7        30.02F WCI  26
OSHKOSH        CLOUDY    32  21  64 S8        30.03F WCI  25
$$

WIZ032>034-041-042-053>061-282200-
SOUTHWEST WISCONSIN

CITY           SKY/WX    TMP DP  RH WIND       PRES   REMARKS
LA CROSSE      CLOUDY    35  26  69 SE10      29.86F WCI  27
SPARTA         CLOUDY    33  26  75 SE9       29.90F WCI  25
VIROQUA        CLOUDY    32  25  74 SE17      29.86F WCI  21
BOSCOBEL       PTSUNNY   35  22  58 SE8       29.93F WCI  29
PRAIRIE DU CHI CLOUDY    35  22  60 SE16G22   29.89F WCI  25
PLATTEVILLE    PTSUNNY   32  24  71 E18G25    29.92F WCI  20
$$

WIZ056-057-062-063-064-067-068-282200-
SOUTH CENTRAL WISCONSIN

CITY           SKY/WX    TMP DP  RH WIND       PRES   REMARKS
REEDSBURG      PTSUNNY   32  23  69 SE6G16    29.94F WCI  26
BARABOO/DELLS  PTSUNNY   31  23  71 SE9       29.96F WCI  23
LONE ROCK      PTSUNNY   34  22  61 E15       29.94F WCI  24
MINERAL POINT  MOSUNNY   32  23  69 SE16G23   29.92F WCI  21
MADISON        CLOUDY    33  22  63 SE16      30.00F WCI  23
MIDDLETON      PTSUNNY   34  22  61 SE13      29.99F WCI  25
WATERTOWN      PTSUNNY   34  21  60 SE10      30.03F WCI  26
MONROE         PTSUNNY   32  27  80 SE14      29.98F WCI  22
JANESVILLE     SUNNY     34  23  64 SE16      30.03F WCI  23
$$

WIZ051-052-058>065-066-070>072-282200-
SOUTHEAST WISCONSIN

CITY           SKY/WX    TMP DP  RH WIND       PRES   REMARKS
MILWAUKEE      CLOUDY    33  19  56 S16       30.08F WCI  23
WAUKESHA       PTSUNNY   32  18  55 SE12G17   30.06F WCI  23
MILWAUKEE/TIMM SUNNY     34  16  47 SE9       30.08F WCI  26
RACINE         PTSUNNY   32  20  61 S17G24    30.11F WCI  21
BURLINGTON     PTSUNNY   33  18  53 SE13      30.05F WCI  24
KENOSHA        PTSUNNY   33  21  61 SE13      30.08F WCI  24
FOND DU LAC    CLOUDY    32  21  64 S13       30.03F WCI  22
SHEBOYGAN      CLOUDY    32  21  64 SE13      30.07F WCI  22
WEST BEND      PTSUNNY   34  19  55 SE9       30.04F WCI  26
JUNEAU         PTSUNNY   32  21  64 SE12      30.04F WCI  23
$$

LSZ147-162-282200-
LAKE SUPERIOR

STATION/POSITION TIME  TEMP    WIND        PRES    WAVE
                       AIR SEA DIR/SP/G            HT/PER
                 (UTC) (F)     (DEG/KT/KT) (MB)    (FT/S)
DEVILS ISLAND    2100   30     120/  5/  7 1012.3F
PORT WING        2040   29      20/  8/ 10 1011.5F
SAXON HARBOR     2000   35     190/  4/ 14 1012.2F
$$

LMZ867-665-643>646-282200-
LAKE MICHIGAN

STATION/POSITION TIME  TEMP    WIND        PRES    WAVE
                       AIR SEA DIR/SP/G            HT/PER
                 (UTC) (F)     (DEG/KT/KT) (MB)    (FT/S)
NORTHPORT PIER   2108   32     160/  7/ 15 1018.6F
SISTER BAY       1843   33     210/ 17/ 20   N/A
KEWAUNEE LAKESHO 2000   31     190/ 16/ 21 1018.6F
SHEBOYGAN LAKESH 2100   32     170/ 22/ 24 1019.2F
PORT WASHINGTON  2100   33     160/ 17/ 21 1019.0F
MILWAUKEE LAKESH 2100   32     160/ 19/ 22   N/A
KENOSHA   LAKESH 2100   32     160/ 20/ 24 1018.6F
$$

TC  - TEMPERATURE IN CELSIUS
VSB - VISIBILITY IN STATUTE MILES
WCI - WIND CHILL INDEX
HX  - HEAT INDEX




USA.gov is the U.S. government's official web portal to all federal, state and local government web resources and services.